Year,Month,Day,Hour,Minute,Value (Times are PST for temperature in C)
2008,08,14,00,00,18.80
2008,08,14,00,01,18.70
2008,08,14,00,02,18.70
2008,08,14,00,04,18.50
2008,08,14,00,06,18.30
2008,08,14,00,07,18.30
2008,08,14,00,08,18.20
2008,08,14,00,09,18.20
2008,08,14,00,10,18.10
2008,08,14,00,11,18.10
2008,08,14,00,12,18.10
2008,08,14,00,13,18.10
2008,08,14,00,14,18.00
2008,08,14,00,16,17.90
2008,08,14,00,17,17.90
2008,08,14,00,18,17.90
2008,08,14,00,19,17.90
2008,08,14,00,21,17.90
2008,08,14,00,22,17.90
2008,08,14,00,23,17.90
2008,08,14,00,24,17.90
2008,08,14,00,25,17.80
2008,08,14,00,26,17.80
2008,08,14,00,27,17.80
2008,08,14,00,28,17.80
2008,08,14,00,29,17.80
2008,08,14,00,30,17.80
2008,08,14,00,31,17.70
2008,08,14,00,32,17.70
2008,08,14,00,33,17.70
2008,08,14,00,35,17.60
2008,08,14,00,36,17.60
2008,08,14,00,37,17.60
2008,08,14,00,39,17.50
2008,08,14,00,41,17.50
2008,08,14,00,42,17.40
2008,08,14,00,43,17.40
2008,08,14,00,44,17.40
2008,08,14,00,45,17.40
2008,08,14,00,46,17.30
2008,08,14,00,47,17.30
2008,08,14,00,48,17.30
2008,08,14,00,49,17.30
2008,08,14,00,50,17.20
2008,08,14,00,51,17.20
2008,08,14,00,52,17.20
2008,08,14,00,53,17.20
2008,08,14,00,54,17.10
2008,08,14,00,55,17.10
2008,08,14,00,56,17.10
2008,08,14,00,57,17.10
2008,08,14,00,58,17.10
2008,08,14,00,59,17.10
2008,08,14,01,00,17.10
2008,08,14,01,01,17.00
2008,08,14,01,03,17.00
2008,08,14,01,04,17.00
2008,08,14,01,05,16.90
2008,08,14,01,06,16.90
2008,08,14,01,07,16.90
2008,08,14,01,08,16.90
2008,08,14,01,09,16.90
2008,08,14,01,10,16.90
2008,08,14,01,11,16.90
2008,08,14,01,12,16.90
2008,08,14,01,13,16.80
2008,08,14,01,14,16.80
2008,08,14,01,16,16.80
2008,08,14,01,17,16.70
2008,08,14,01,18,16.70
2008,08,14,01,19,16.70
2008,08,14,01,20,16.60
2008,08,14,01,21,16.60
2008,08,14,01,22,16.60
2008,08,14,01,23,16.50
2008,08,14,01,24,16.40
2008,08,14,01,25,16.40
2008,08,14,01,26,16.30
2008,08,14,01,27,16.30
2008,08,14,01,29,16.20
2008,08,14,01,30,16.20
2008,08,14,01,31,16.20
2008,08,14,01,32,16.20
2008,08,14,01,33,16.10
2008,08,14,01,34,16.10
2008,08,14,01,35,16.10
2008,08,14,01,36,16.10
2008,08,14,01,37,16.00
2008,08,14,01,38,16.00
2008,08,14,01,39,16.00
2008,08,14,01,40,15.90
2008,08,14,01,41,15.90
2008,08,14,01,42,15.90
2008,08,14,01,43,15.90
2008,08,14,01,44,15.90
2008,08,14,01,45,15.90
2008,08,14,01,46,15.90
2008,08,14,01,47,16.00
2008,08,14,01,48,16.00
2008,08,14,01,49,16.00
2008,08,14,01,50,16.00
2008,08,14,01,52,16.00
2008,08,14,01,53,16.00
2008,08,14,01,54,16.00
2008,08,14,01,55,16.00
2008,08,14,01,56,15.90
2008,08,14,01,57,15.90
2008,08,14,01,58,15.90
2008,08,14,01,59,15.90
2008,08,14,02,00,15.90
2008,08,14,02,01,15.90
2008,08,14,02,02,15.90
2008,08,14,02,03,15.90
2008,08,14,02,04,15.80
2008,08,14,02,05,15.80
2008,08,14,02,06,15.80
2008,08,14,02,07,15.80
2008,08,14,02,08,15.80
2008,08,14,02,09,15.70
2008,08,14,02,10,15.70
2008,08,14,02,11,15.70
2008,08,14,02,12,15.70
2008,08,14,02,13,15.70
2008,08,14,02,14,15.70
2008,08,14,02,15,15.70
2008,08,14,02,16,15.70
2008,08,14,02,17,15.70
2008,08,14,02,18,15.60
2008,08,14,02,19,15.60
2008,08,14,02,20,15.60
2008,08,14,02,21,15.60
2008,08,14,02,22,15.60
2008,08,14,02,23,15.60
2008,08,14,02,24,15.60
2008,08,14,02,25,15.60
2008,08,14,02,26,15.60
2008,08,14,02,28,15.60
2008,08,14,02,29,15.50
2008,08,14,02,30,15.50
2008,08,14,02,31,15.50
2008,08,14,02,32,15.50
2008,08,14,02,33,15.50
2008,08,14,02,34,15.50
2008,08,14,02,35,15.50
2008,08,14,02,36,15.50
2008,08,14,02,37,15.50
2008,08,14,02,38,15.50
2008,08,14,02,39,15.40
2008,08,14,02,40,15.40
2008,08,14,02,41,15.40
2008,08,14,02,42,15.40
2008,08,14,02,43,15.40
2008,08,14,02,44,15.40
2008,08,14,02,45,15.40
2008,08,14,02,46,15.40
2008,08,14,02,47,15.40
2008,08,14,02,48,15.30
2008,08,14,02,49,15.30
2008,08,14,02,50,15.30
2008,08,14,02,51,15.30
2008,08,14,02,52,15.30
2008,08,14,02,53,15.30
2008,08,14,02,54,15.30
2008,08,14,02,55,15.20
2008,08,14,02,56,15.20
2008,08,14,02,57,15.20
2008,08,14,02,58,15.10
2008,08,14,02,59,15.10
2008,08,14,03,00,15.00
2008,08,14,03,01,15.00
2008,08,14,03,02,15.00
2008,08,14,03,03,15.00
2008,08,14,03,04,15.00
2008,08,14,03,05,15.00
2008,08,14,03,06,15.00
2008,08,14,03,07,15.00
2008,08,14,03,08,15.00
2008,08,14,03,09,15.00
2008,08,14,03,10,15.00
2008,08,14,03,11,15.00
2008,08,14,03,12,15.00
2008,08,14,03,13,15.00
2008,08,14,03,14,15.00
2008,08,14,03,15,15.00
2008,08,14,03,16,15.00
2008,08,14,03,17,15.00
2008,08,14,03,18,15.00
2008,08,14,03,19,15.00
2008,08,14,03,20,15.00
2008,08,14,03,21,15.00
2008,08,14,03,22,15.00
2008,08,14,03,23,15.00
2008,08,14,03,24,15.00
2008,08,14,03,25,15.00
2008,08,14,03,26,15.00
2008,08,14,03,27,15.00
2008,08,14,03,28,15.00
2008,08,14,03,29,15.00
2008,08,14,03,31,15.00
2008,08,14,03,32,15.00
2008,08,14,03,33,15.00
2008,08,14,03,34,15.00
2008,08,14,03,35,15.00
2008,08,14,03,36,15.00
2008,08,14,03,37,15.00
2008,08,14,03,38,15.00
2008,08,14,03,39,14.90
2008,08,14,03,40,14.90
2008,08,14,03,41,14.90
2008,08,14,03,42,14.80
2008,08,14,03,43,14.80
2008,08,14,03,44,14.80
2008,08,14,03,45,14.80
2008,08,14,03,46,14.80
2008,08,14,03,47,14.80
2008,08,14,03,48,14.70
2008,08,14,03,49,14.70
2008,08,14,03,50,14.70
2008,08,14,03,51,14.70
2008,08,14,03,52,14.70
2008,08,14,03,53,14.70
2008,08,14,03,54,14.70
2008,08,14,03,55,14.60
2008,08,14,03,56,14.60
2008,08,14,03,57,14.60
2008,08,14,03,58,14.50
2008,08,14,03,59,14.50
2008,08,14,04,00,14.40
2008,08,14,04,01,14.40
2008,08,14,04,02,14.40
2008,08,14,04,03,14.30
2008,08,14,04,04,14.30
2008,08,14,04,05,14.30
2008,08,14,04,06,14.30
2008,08,14,04,07,14.30
2008,08,14,04,08,14.30
2008,08,14,04,09,14.30
2008,08,14,04,10,14.30
2008,08,14,04,11,14.30
2008,08,14,04,12,14.30
2008,08,14,04,13,14.30
2008,08,14,04,14,14.30
2008,08,14,04,15,14.40
2008,08,14,04,16,14.40
2008,08,14,04,17,14.40
2008,08,14,04,18,14.40
2008,08,14,04,19,14.40
2008,08,14,04,20,14.40
2008,08,14,04,21,14.40
2008,08,14,04,22,14.50
2008,08,14,04,23,14.60
2008,08,14,04,24,14.60
2008,08,14,04,25,14.60
2008,08,14,04,26,14.60
2008,08,14,04,27,14.60
2008,08,14,04,28,14.60
2008,08,14,04,29,14.50
2008,08,14,04,30,14.50
2008,08,14,04,31,14.50
2008,08,14,04,32,14.40
2008,08,14,04,33,14.40
2008,08,14,04,34,14.40
2008,08,14,04,35,14.40
2008,08,14,04,36,14.40
2008,08,14,04,37,14.40
2008,08,14,04,38,14.30
2008,08,14,04,39,14.30
2008,08,14,04,40,14.30
2008,08,14,04,41,14.30
2008,08,14,04,42,14.30
2008,08,14,04,43,14.30
2008,08,14,04,44,14.30
2008,08,14,04,45,14.30
2008,08,14,04,46,14.30
2008,08,14,04,47,14.20
2008,08,14,04,48,14.20
2008,08,14,04,49,14.20
2008,08,14,04,50,14.30
2008,08,14,04,51,14.30
2008,08,14,04,52,14.30
2008,08,14,04,53,14.30
2008,08,14,04,54,14.30
2008,08,14,04,55,14.30
2008,08,14,04,56,14.30
2008,08,14,04,57,14.30
2008,08,14,04,58,14.30
2008,08,14,04,59,14.30
2008,08,14,05,00,14.30
2008,08,14,05,01,14.20
2008,08,14,05,02,14.20
2008,08,14,05,03,14.20
2008,08,14,05,04,14.20
2008,08,14,05,05,14.20
2008,08,14,05,06,14.20
2008,08,14,05,07,14.20
2008,08,14,05,08,14.20
2008,08,14,05,09,14.20
2008,08,14,05,10,14.20
2008,08,14,05,11,14.20
2008,08,14,05,12,14.20
2008,08,14,05,13,14.10
2008,08,14,05,14,14.10
2008,08,14,05,15,14.10
2008,08,14,05,16,14.10
2008,08,14,05,17,14.10
2008,08,14,05,18,14.10
2008,08,14,05,19,14.10
2008,08,14,05,20,14.10
2008,08,14,05,21,14.10
2008,08,14,05,22,14.20
2008,08,14,05,23,14.20
2008,08,14,05,24,14.20
2008,08,14,05,25,14.20
2008,08,14,05,26,14.20
2008,08,14,05,27,14.20
2008,08,14,05,28,14.20
2008,08,14,05,29,14.20
2008,08,14,05,30,14.20
2008,08,14,05,31,14.20
2008,08,14,05,32,14.20
2008,08,14,05,33,14.20
2008,08,14,05,34,14.30
2008,08,14,05,35,14.20
2008,08,14,05,36,14.20
2008,08,14,05,37,14.20
2008,08,14,05,38,14.20
2008,08,14,05,39,14.20
2008,08,14,05,40,14.20
2008,08,14,05,41,14.20
2008,08,14,05,42,14.20
2008,08,14,05,43,14.10
2008,08,14,05,44,14.10
2008,08,14,05,45,14.20
2008,08,14,05,46,14.20
2008,08,14,05,47,14.20
2008,08,14,05,48,14.20
2008,08,14,05,49,14.20
2008,08,14,05,50,14.20
2008,08,14,05,51,14.20
2008,08,14,05,52,14.10
2008,08,14,05,53,14.10
2008,08,14,05,54,14.10
2008,08,14,05,55,14.10
2008,08,14,05,56,14.10
2008,08,14,05,57,14.00
2008,08,14,05,58,14.00
2008,08,14,05,59,13.90
2008,08,14,06,00,13.90
2008,08,14,06,01,13.90
2008,08,14,06,02,13.90
2008,08,14,06,03,13.90
2008,08,14,06,04,13.80
2008,08,14,06,05,13.80
2008,08,14,06,06,13.70
2008,08,14,06,07,13.70
2008,08,14,06,08,13.70
2008,08,14,06,09,13.70
2008,08,14,06,10,13.70
2008,08,14,06,11,13.70
2008,08,14,06,12,13.70
2008,08,14,06,13,13.70
2008,08,14,06,14,13.70
2008,08,14,06,15,13.70
2008,08,14,06,16,13.70
2008,08,14,06,17,13.70
2008,08,14,06,18,13.70
2008,08,14,06,19,13.70
2008,08,14,06,20,13.70
2008,08,14,06,21,13.70
2008,08,14,06,22,13.70
2008,08,14,06,23,13.70
2008,08,14,06,24,13.70
2008,08,14,06,25,13.70
2008,08,14,06,26,13.70
2008,08,14,06,27,13.70
2008,08,14,06,28,13.70
2008,08,14,06,29,13.70
2008,08,14,06,30,13.70
2008,08,14,06,31,13.70
2008,08,14,06,32,13.80
2008,08,14,06,33,13.80
2008,08,14,06,34,13.80
2008,08,14,06,35,13.70
2008,08,14,06,36,13.70
2008,08,14,06,37,13.70
2008,08,14,06,38,13.70
2008,08,14,06,39,13.70
2008,08,14,06,40,13.60
2008,08,14,06,41,13.60
2008,08,14,06,42,13.50
2008,08,14,06,43,13.50
2008,08,14,06,44,13.40
2008,08,14,06,45,13.40
2008,08,14,06,46,13.40
2008,08,14,06,47,13.30
2008,08,14,06,48,13.30
2008,08,14,06,49,13.30
2008,08,14,06,50,13.30
2008,08,14,06,51,13.30
2008,08,14,06,52,13.30
2008,08,14,06,53,13.30
2008,08,14,06,54,13.30
2008,08,14,06,55,13.20
2008,08,14,06,56,13.20
2008,08,14,06,57,13.20
2008,08,14,06,58,13.20
2008,08,14,06,59,13.20
2008,08,14,07,00,13.20
2008,08,14,07,01,13.20
2008,08,14,07,02,13.10
2008,08,14,07,03,13.10
2008,08,14,07,04,13.10
2008,08,14,07,05,13.10
2008,08,14,07,06,13.10
2008,08,14,07,07,13.20
2008,08,14,07,08,13.20
2008,08,14,07,09,13.20
2008,08,14,07,10,13.20
2008,08,14,07,11,13.20
2008,08,14,07,12,13.30
2008,08,14,07,13,13.30
2008,08,14,07,14,13.40
2008,08,14,07,15,13.40
2008,08,14,07,16,13.50
2008,08,14,07,17,13.60
2008,08,14,07,18,13.60
2008,08,14,07,19,13.60
2008,08,14,07,20,13.70
2008,08,14,07,21,13.70
2008,08,14,07,22,13.80
2008,08,14,07,23,13.80
2008,08,14,07,24,13.90
2008,08,14,07,25,13.90
2008,08,14,07,26,14.00
2008,08,14,07,27,14.10
2008,08,14,07,28,14.20
2008,08,14,07,30,14.30
2008,08,14,07,31,14.40
2008,08,14,07,32,14.50
2008,08,14,07,33,14.60
2008,08,14,07,34,14.70
2008,08,14,07,35,14.80
2008,08,14,07,36,14.90
2008,08,14,07,37,15.00
2008,08,14,07,38,15.00
2008,08,14,07,39,15.00
2008,08,14,07,40,15.00
2008,08,14,07,41,15.10
2008,08,14,07,42,15.20
2008,08,14,07,43,15.30
2008,08,14,07,44,15.30
2008,08,14,07,45,15.40
2008,08,14,07,46,15.40
2008,08,14,07,47,15.50
2008,08,14,07,48,15.60
2008,08,14,07,49,15.60
2008,08,14,07,50,15.70
2008,08,14,07,51,15.70
2008,08,14,07,52,15.70
2008,08,14,07,53,15.70
2008,08,14,07,54,15.80
2008,08,14,07,55,15.80
2008,08,14,07,56,15.80
2008,08,14,07,57,15.80
2008,08,14,07,58,15.90
2008,08,14,07,59,16.00
2008,08,14,08,00,16.00
2008,08,14,08,01,16.10
2008,08,14,08,02,16.10
2008,08,14,08,03,16.20
2008,08,14,08,04,16.20
2008,08,14,08,05,16.30
2008,08,14,08,06,16.30
2008,08,14,08,07,16.40
2008,08,14,08,08,16.40
2008,08,14,08,09,16.40
2008,08,14,08,10,16.50
2008,08,14,08,11,16.60
2008,08,14,08,12,16.70
2008,08,14,08,13,16.80
2008,08,14,08,14,16.80
2008,08,14,08,15,17.00
2008,08,14,08,16,17.20
2008,08,14,08,17,17.30
2008,08,14,08,18,17.40
2008,08,14,08,19,17.50
2008,08,14,08,20,17.60
2008,08,14,08,21,17.70
2008,08,14,08,22,17.80
2008,08,14,08,23,17.90
2008,08,14,08,24,18.10
2008,08,14,08,25,18.20
2008,08,14,08,26,18.30
2008,08,14,08,27,18.40
2008,08,14,08,28,18.40
2008,08,14,08,29,18.50
2008,08,14,08,30,18.50
2008,08,14,08,31,18.40
2008,08,14,08,32,18.50
2008,08,14,08,33,18.60
2008,08,14,08,34,18.60
2008,08,14,08,35,18.70
2008,08,14,08,36,18.70
2008,08,14,08,37,18.70
2008,08,14,08,38,18.80
2008,08,14,08,39,18.80
2008,08,14,08,40,18.90
2008,08,14,08,41,18.90
2008,08,14,08,42,18.90
2008,08,14,08,43,18.80
2008,08,14,08,44,18.80
2008,08,14,08,45,18.80
2008,08,14,08,46,18.80
2008,08,14,08,47,18.80
2008,08,14,08,48,18.70
2008,08,14,08,49,18.80
2008,08,14,08,50,18.80
2008,08,14,08,51,18.90
2008,08,14,08,52,18.90
2008,08,14,08,53,19.00
2008,08,14,08,54,19.00
2008,08,14,08,55,19.10
2008,08,14,08,56,19.10
2008,08,14,08,57,19.10
2008,08,14,08,58,19.20
2008,08,14,08,59,19.30
2008,08,14,09,00,19.40
2008,08,14,09,01,19.60
2008,08,14,09,02,19.70
2008,08,14,09,03,19.80
2008,08,14,09,04,19.90
2008,08,14,09,05,20.00
2008,08,14,09,06,19.90
2008,08,14,09,07,19.90
2008,08,14,09,08,19.80
2008,08,14,09,09,19.80
2008,08,14,09,10,19.80
2008,08,14,09,11,19.70
2008,08,14,09,12,19.70
2008,08,14,09,13,19.70
2008,08,14,09,14,19.70
2008,08,14,09,15,19.70
2008,08,14,09,16,19.80
2008,08,14,09,17,19.80
2008,08,14,09,18,19.90
2008,08,14,09,19,19.90
2008,08,14,09,20,19.90
2008,08,14,09,21,19.90
2008,08,14,09,22,20.00
2008,08,14,09,23,20.00
2008,08,14,09,24,20.00
2008,08,14,09,25,20.10
2008,08,14,09,26,20.00
2008,08,14,09,27,20.00
2008,08,14,09,28,20.00
2008,08,14,09,29,19.90
2008,08,14,09,30,19.90
2008,08,14,09,31,19.90
2008,08,14,09,32,19.80
2008,08,14,09,33,19.80
2008,08,14,09,34,19.90
2008,08,14,09,35,19.90
2008,08,14,09,36,19.90
2008,08,14,09,37,20.00
2008,08,14,09,38,20.00
2008,08,14,09,39,20.00
2008,08,14,09,40,20.10
2008,08,14,09,41,20.10
2008,08,14,09,42,20.20
2008,08,14,09,43,20.20
2008,08,14,09,44,20.30
2008,08,14,09,45,20.40
2008,08,14,09,47,20.40
2008,08,14,09,48,20.50
2008,08,14,09,49,20.60
2008,08,14,09,50,20.60
2008,08,14,09,51,20.70
2008,08,14,09,52,20.70
2008,08,14,09,53,20.70
2008,08,14,09,54,20.80
2008,08,14,09,55,20.80
2008,08,14,09,56,20.80
2008,08,14,09,57,20.90
2008,08,14,09,58,20.90
2008,08,14,09,59,20.90
2008,08,14,10,00,20.90
2008,08,14,10,01,21.00
2008,08,14,10,02,21.00
2008,08,14,10,03,21.00
2008,08,14,10,04,21.00
2008,08,14,10,05,21.00
2008,08,14,10,06,21.00
2008,08,14,10,07,21.10
2008,08,14,10,08,21.10
2008,08,14,10,09,21.10
2008,08,14,10,10,21.10
2008,08,14,10,11,21.10
2008,08,14,10,12,21.10
2008,08,14,10,13,21.10
2008,08,14,10,14,21.10
2008,08,14,10,15,21.20
2008,08,14,10,16,21.20
2008,08,14,10,17,21.20
2008,08,14,10,18,21.30
2008,08,14,10,19,21.30
2008,08,14,10,20,21.40
2008,08,14,10,21,21.50
2008,08,14,10,22,21.50
2008,08,14,10,23,21.60
2008,08,14,10,24,21.70
2008,08,14,10,25,21.80
2008,08,14,10,26,22.00
2008,08,14,10,27,22.20
2008,08,14,10,28,22.20
2008,08,14,10,29,22.30
2008,08,14,10,30,22.50
2008,08,14,10,31,22.70
2008,08,14,10,32,22.80
2008,08,14,10,33,22.90
2008,08,14,10,34,23.00
2008,08,14,10,35,23.00
2008,08,14,10,36,23.00
2008,08,14,10,37,23.10
2008,08,14,10,38,23.10
2008,08,14,10,39,23.10
2008,08,14,10,40,23.10
2008,08,14,10,41,23.10
2008,08,14,10,42,23.20
2008,08,14,10,43,23.30
2008,08,14,10,44,23.40
2008,08,14,10,45,23.50
2008,08,14,10,46,23.60
2008,08,14,10,47,23.70
2008,08,14,10,48,23.80
2008,08,14,10,49,23.90
2008,08,14,10,50,24.10
2008,08,14,10,51,24.20
2008,08,14,10,52,24.30
2008,08,14,10,53,24.40
2008,08,14,10,54,24.50
2008,08,14,10,55,24.60
2008,08,14,10,56,24.70
2008,08,14,10,57,24.80
2008,08,14,10,58,24.90
2008,08,14,10,59,24.90
2008,08,14,11,00,24.90
2008,08,14,11,01,24.90
2008,08,14,11,02,24.90
2008,08,14,11,03,24.90
2008,08,14,11,04,25.00
2008,08,14,11,05,25.10
2008,08,14,11,06,25.20
2008,08,14,11,07,25.30
2008,08,14,11,08,25.30
2008,08,14,11,09,25.40
2008,08,14,11,10,25.40
2008,08,14,11,11,25.50
2008,08,14,11,12,25.60
2008,08,14,11,13,25.70
2008,08,14,11,14,25.80
2008,08,14,11,15,25.90
2008,08,14,11,16,26.00
2008,08,14,11,17,26.10
2008,08,14,11,18,26.20
2008,08,14,11,19,26.20
2008,08,14,11,20,26.20
2008,08,14,11,21,26.20
2008,08,14,11,22,26.20
2008,08,14,11,23,26.30
2008,08,14,11,24,26.30
2008,08,14,11,25,26.40
2008,08,14,11,26,26.40
2008,08,14,11,27,26.40
2008,08,14,11,28,26.40
2008,08,14,11,29,26.40
2008,08,14,11,30,26.30
2008,08,14,11,31,26.40
2008,08,14,11,32,26.40
2008,08,14,11,33,26.40
2008,08,14,11,34,26.60
2008,08,14,11,35,26.60
2008,08,14,11,36,26.70
2008,08,14,11,37,26.70
2008,08,14,11,38,26.80
2008,08,14,11,39,26.90
2008,08,14,11,40,26.90
2008,08,14,11,41,27.00
2008,08,14,11,42,27.10
2008,08,14,11,43,27.20
2008,08,14,11,44,27.20
2008,08,14,11,45,27.40
2008,08,14,11,46,27.50
2008,08,14,11,47,27.60
2008,08,14,11,48,27.80
2008,08,14,11,49,27.90
2008,08,14,11,50,28.00
2008,08,14,11,51,28.10
2008,08,14,11,52,28.20
2008,08,14,11,53,28.30
2008,08,14,11,54,28.40
2008,08,14,11,55,28.50
2008,08,14,11,56,28.60
2008,08,14,11,57,28.70
2008,08,14,11,58,28.80
2008,08,14,11,59,28.90
2008,08,14,12,00,29.00
2008,08,14,12,01,29.10
2008,08,14,12,02,29.20
2008,08,14,12,03,29.30
2008,08,14,12,04,29.40
2008,08,14,12,05,29.40
2008,08,14,12,06,29.60
2008,08,14,12,07,29.60
2008,08,14,12,08,29.70
2008,08,14,12,09,29.80
2008,08,14,12,10,29.80
2008,08,14,12,11,29.90
2008,08,14,12,12,29.90
2008,08,14,12,13,29.90
2008,08,14,12,14,30.00
2008,08,14,12,15,30.00
2008,08,14,12,16,30.00
2008,08,14,12,17,30.10
2008,08,14,12,18,30.10
2008,08,14,12,19,30.20
2008,08,14,12,20,30.20
2008,08,14,12,21,30.20
2008,08,14,12,22,30.30
2008,08,14,12,23,30.30
2008,08,14,12,24,30.40
2008,08,14,12,25,30.50
2008,08,14,12,26,30.60
2008,08,14,12,27,30.70
2008,08,14,12,28,30.70
2008,08,14,12,29,30.80
2008,08,14,12,30,30.80
2008,08,14,12,31,30.80
2008,08,14,12,32,30.80
2008,08,14,12,33,30.80
2008,08,14,12,34,30.80
2008,08,14,12,35,30.90
2008,08,14,12,36,30.90
2008,08,14,12,37,31.00
2008,08,14,12,38,31.00
2008,08,14,12,39,31.10
2008,08,14,12,40,31.20
2008,08,14,12,41,31.20
2008,08,14,12,42,31.30
2008,08,14,12,43,31.30
2008,08,14,12,44,31.40
2008,08,14,12,45,31.40
2008,08,14,12,46,31.40
2008,08,14,12,47,31.50
2008,08,14,12,48,31.60
2008,08,14,12,49,31.60
2008,08,14,12,50,31.70
2008,08,14,12,51,31.70
2008,08,14,12,52,31.70
2008,08,14,12,53,31.70
2008,08,14,12,54,31.70
2008,08,14,12,55,31.80
2008,08,14,12,56,31.80
2008,08,14,12,57,31.80
2008,08,14,12,58,31.90
2008,08,14,12,59,31.90
2008,08,14,13,00,31.90
2008,08,14,13,01,31.90
2008,08,14,13,02,31.90
2008,08,14,13,03,31.90
2008,08,14,13,04,31.70
2008,08,14,13,05,31.40
2008,08,14,13,06,31.30
2008,08,14,13,07,31.20
2008,08,14,13,08,30.80
2008,08,14,13,09,30.60
2008,08,14,13,10,30.40
2008,08,14,13,11,30.30
2008,08,14,13,12,30.30
2008,08,14,13,13,30.30
2008,08,14,13,14,30.30
2008,08,14,13,15,30.30
2008,08,14,13,16,30.40
2008,08,14,13,17,30.30
2008,08,14,13,18,30.30
2008,08,14,13,19,30.20
2008,08,14,13,20,30.20
2008,08,14,13,21,30.20
2008,08,14,13,22,30.20
2008,08,14,13,23,30.20
2008,08,14,13,24,30.30
2008,08,14,13,25,30.40
2008,08,14,13,26,30.60
2008,08,14,13,27,30.60
2008,08,14,13,28,30.70
2008,08,14,13,29,30.80
2008,08,14,13,30,30.90
2008,08,14,13,31,31.10
2008,08,14,13,32,31.10
2008,08,14,13,33,31.20
2008,08,14,13,34,31.30
2008,08,14,13,35,31.40
2008,08,14,13,36,31.50
2008,08,14,13,37,31.60
2008,08,14,13,38,31.70
2008,08,14,13,39,31.80
2008,08,14,13,40,31.80
2008,08,14,13,41,31.90
2008,08,14,13,42,32.00
2008,08,14,13,43,32.10
2008,08,14,13,44,32.20
2008,08,14,13,45,32.30
2008,08,14,13,46,32.30
2008,08,14,13,47,32.30
2008,08,14,13,48,32.40
2008,08,14,13,49,32.40
2008,08,14,13,50,32.50
2008,08,14,13,51,32.60
2008,08,14,13,52,32.60
2008,08,14,13,53,32.60
2008,08,14,13,54,32.70
2008,08,14,13,55,32.70
2008,08,14,13,56,32.70
2008,08,14,13,57,32.70
2008,08,14,13,58,32.70
2008,08,14,13,59,32.60
2008,08,14,14,00,32.60
2008,08,14,14,01,32.60
2008,08,14,14,02,32.60
2008,08,14,14,03,32.60
2008,08,14,14,04,32.40
2008,08,14,14,05,32.40
2008,08,14,14,06,32.40
2008,08,14,14,07,32.30
2008,08,14,14,08,32.40
2008,08,14,14,09,32.30
2008,08,14,14,10,32.30
2008,08,14,14,11,32.30
2008,08,14,14,12,32.30
2008,08,14,14,13,32.30
2008,08,14,14,14,32.30
2008,08,14,14,15,32.30
2008,08,14,14,16,32.30
2008,08,14,14,17,32.40
2008,08,14,14,18,32.40
2008,08,14,14,19,32.40
2008,08,14,14,20,32.50
2008,08,14,14,21,32.50
2008,08,14,14,22,32.60
2008,08,14,14,23,32.60
2008,08,14,14,24,32.60
2008,08,14,14,25,32.60
2008,08,14,14,26,32.60
2008,08,14,14,27,32.50
2008,08,14,14,28,32.40
2008,08,14,14,29,32.40
2008,08,14,14,30,32.40
2008,08,14,14,31,32.40
2008,08,14,14,32,32.40
2008,08,14,14,33,32.40
2008,08,14,14,34,32.40
2008,08,14,14,35,32.40
2008,08,14,14,36,32.40
2008,08,14,14,37,32.50
2008,08,14,14,38,32.50
2008,08,14,14,39,32.50
2008,08,14,14,40,32.60
2008,08,14,14,41,32.60
2008,08,14,14,42,32.60
2008,08,14,14,43,32.60
2008,08,14,14,44,32.60
2008,08,14,14,45,32.50
2008,08,14,14,46,32.40
2008,08,14,14,47,32.40
2008,08,14,14,48,32.40
2008,08,14,14,49,32.40
2008,08,14,14,50,32.40
2008,08,14,14,51,32.60
2008,08,14,14,52,32.60
2008,08,14,14,53,32.60
2008,08,14,14,54,32.70
2008,08,14,14,55,32.70
2008,08,14,14,56,32.80
2008,08,14,14,57,32.80
2008,08,14,14,58,32.80
2008,08,14,14,59,32.80
2008,08,14,15,00,32.80
2008,08,14,15,01,32.90
2008,08,14,15,02,32.90
2008,08,14,15,03,32.90
2008,08,14,15,04,33.00
2008,08,14,15,05,33.10
2008,08,14,15,06,33.10
2008,08,14,15,07,33.10
2008,08,14,15,08,33.10
2008,08,14,15,09,33.10
2008,08,14,15,10,33.00
2008,08,14,15,11,33.10
2008,08,14,15,12,33.10
2008,08,14,15,13,33.10
2008,08,14,15,14,33.10
2008,08,14,15,15,33.10
2008,08,14,15,16,33.10
2008,08,14,15,17,33.20
2008,08,14,15,18,33.10
2008,08,14,15,19,33.00
2008,08,14,15,20,32.90
2008,08,14,15,21,32.90
2008,08,14,15,22,32.70
2008,08,14,15,23,32.60
2008,08,14,15,24,32.60
2008,08,14,15,25,32.60
2008,08,14,15,26,32.70
2008,08,14,15,27,32.80
2008,08,14,15,28,32.80
2008,08,14,15,29,32.90
2008,08,14,15,30,33.00
2008,08,14,15,31,33.10
2008,08,14,15,32,33.20
2008,08,14,15,33,33.30
2008,08,14,15,34,33.40
2008,08,14,15,35,33.40
2008,08,14,15,36,33.40
2008,08,14,15,37,33.40
2008,08,14,15,38,33.30
2008,08,14,15,39,33.30
2008,08,14,15,40,33.30
2008,08,14,15,41,33.30
2008,08,14,15,42,33.40
2008,08,14,15,43,33.50
2008,08,14,15,44,33.60
2008,08,14,15,45,33.80
2008,08,14,15,46,33.90
2008,08,14,15,47,34.10
2008,08,14,15,48,34.20
2008,08,14,15,49,34.30
2008,08,14,15,50,34.40
2008,08,14,15,51,34.60
2008,08,14,15,52,34.70
2008,08,14,15,53,34.80
2008,08,14,15,54,34.90
2008,08,14,15,55,34.90
2008,08,14,15,56,35.00
2008,08,14,15,57,35.10
2008,08,14,15,58,35.10
2008,08,14,15,59,35.10
2008,08,14,16,00,35.00
2008,08,14,16,01,34.90
2008,08,14,16,02,34.90
2008,08,14,16,03,34.80
2008,08,14,16,04,34.80
2008,08,14,16,05,34.80
2008,08,14,16,06,34.90
2008,08,14,16,07,34.90
2008,08,14,16,08,34.90
2008,08,14,16,09,34.90
2008,08,14,16,10,34.80
2008,08,14,16,11,34.70
2008,08,14,16,12,34.70
2008,08,14,16,13,34.70
2008,08,14,16,14,34.60
2008,08,14,16,15,34.60
2008,08,14,16,16,34.50
2008,08,14,16,17,34.40
2008,08,14,16,18,34.30
2008,08,14,16,19,34.30
2008,08,14,16,20,34.30
2008,08,14,16,21,34.40
2008,08,14,16,22,34.40
2008,08,14,16,23,34.40
2008,08,14,16,24,34.50
2008,08,14,16,25,34.60
2008,08,14,16,26,34.60
2008,08,14,16,27,34.60
2008,08,14,16,28,34.70
2008,08,14,16,29,34.70
2008,08,14,16,30,34.70
2008,08,14,16,31,34.70
2008,08,14,16,32,34.70
2008,08,14,16,33,34.70
2008,08,14,16,34,34.80
2008,08,14,16,35,34.80
2008,08,14,16,36,34.80
2008,08,14,16,37,34.80
2008,08,14,16,38,34.80
2008,08,14,16,39,34.90
2008,08,14,16,40,34.90
2008,08,14,16,41,34.90
2008,08,14,16,42,34.90
2008,08,14,16,43,34.90
2008,08,14,16,44,34.90
2008,08,14,16,45,34.90
2008,08,14,16,46,34.80
2008,08,14,16,47,34.80
2008,08,14,16,48,34.70
2008,08,14,16,49,34.70
2008,08,14,16,50,34.60
2008,08,14,16,51,34.50
2008,08,14,16,52,34.40
2008,08,14,16,53,34.30
2008,08,14,16,54,34.20
2008,08,14,16,55,34.20
2008,08,14,16,56,34.20
2008,08,14,16,57,34.20
2008,08,14,16,58,34.20
2008,08,14,16,59,34.20
2008,08,14,17,00,34.30
2008,08,14,17,01,34.30
2008,08,14,17,02,34.40
2008,08,14,17,03,34.40
2008,08,14,17,04,34.50
2008,08,14,17,05,34.60
2008,08,14,17,06,34.70
2008,08,14,17,07,34.80
2008,08,14,17,08,34.80
2008,08,14,17,09,34.90
2008,08,14,17,10,34.90
2008,08,14,17,11,35.00
2008,08,14,17,12,35.10
2008,08,14,17,13,35.10
2008,08,14,17,14,35.10
2008,08,14,17,15,35.10
2008,08,14,17,16,35.10
2008,08,14,17,17,35.20
2008,08,14,17,18,35.20
2008,08,14,17,19,35.10
2008,08,14,17,20,35.10
2008,08,14,17,21,35.10
2008,08,14,17,22,35.10
2008,08,14,17,23,35.10
2008,08,14,17,24,35.20
2008,08,14,17,25,35.20
2008,08,14,17,26,35.20
2008,08,14,17,27,35.10
2008,08,14,17,28,35.10
2008,08,14,17,29,35.00
2008,08,14,17,30,35.00
2008,08,14,17,31,35.00
2008,08,14,17,32,35.00
2008,08,14,17,33,35.10
2008,08,14,17,34,35.10